Trang, Thailand

9:15 AM +07 on September 26, 2017 (GMT +0700)
Trang

Weather History for VTST - December, 2013

Change the Weather History Date:

Monday, December 23, 2013

  Actual Average Record
Temperature  
Mean Temperature 80 °F -  
Max Temperature 89 °F 89 °F - ()
Min Temperature 70 °F 70 °F - ()
Cooling Degree Days 14    
Growing Degree Days 30 (Base 50)    
Moisture  
Dew Point 72 °F    
Average Humidity 70    
Maximum Humidity 94    
Minimum Humidity 47    
Precipitation  
Precipitation 0.00 in 0.08 in - ()
Sea Level Pressure  
Sea Level Pressure 29.87 in    
Wind  
Wind Speed 4 mph ()    
Max Wind Speed 13 mph    
Max Gust Speed -    
Visibility 5.7 miles    
Events      
T = Trace of Precipitation, MM = Missing Value Source: Averaged Metar Reports

Daily Weather History Graph

Daily Weather History Graph

Search for Another Location

Airport or City:

Trip Planner

Search our weather history database for the weather conditions in past years. The results will help you decide how hot, cold, wet, or windy it might be!

Date:

Astronomy

Dec. 23, 2013 Rise Set
Actual Time 6:29 AM +07 6:11 PM +07
Civil Twilight 6:07 AM +07 6:33 PM +07
Nautical Twilight 5:40 AM +07 7:00 PM +07
Astronomical Twilight 5:14 AM +07 7:26 PM +07
Moon 10:51 PM +07 (12/23) 10:34 AM +07 (12/23)
Length of Visible Light 12h 26m
Length of Day
11h 41m
Waning Gibbous, 72% of the Moon is Illuminated
Dec 23
Waning Gibbous
Dec 25
Last Quarter
Jan 1
New
Jan 8
First Quarter
Jan 16
Full

Hourly Weather History & Observations

Time (+07) Temp. Heat Index Dew Point Humidity Pressure Visibility Wind Dir Wind Speed Gust Speed Precip Events Conditions
1:00 AM 74 °F - 71 °F 86% 29.93 in 5 mi Calm Calm - -   Mist
4:00 AM 73 °F - 71 °F 90% 29.88 in 4 mi Calm Calm - -   Mist
7:00 AM 72 °F - 70 °F 91% 29.89 in 5 mi Calm Calm - -   Mist
7:00 AM 73.4 °F - 71.6 °F 94% 29.86 in 5.0 mi Calm Calm - N/A   Scattered Clouds
8:00 AM 77.0 °F - 75.2 °F 94% 29.89 in 5.6 mi Calm Calm - N/A   Scattered Clouds
9:00 AM 80.6 °F 84.6 °F 71.6 °F 74% 29.89 in 5.6 mi NE 11.5 mph - N/A   Scattered Clouds
10:00 AM 83 °F - 74 °F 67% 29.94 in 6 mi NE 10.4 mph - -   Mist
10:00 AM 82.4 °F 87.2 °F 71.6 °F 70% 29.89 in 5.6 mi ENE 9.2 mph - N/A   Scattered Clouds
11:00 AM 86.0 °F 91.8 °F 71.6 °F 62% 29.89 in 5.6 mi ENE 6.9 mph - N/A   Mostly Cloudy
12:00 PM 87.8 °F 93.8 °F 71.6 °F 58% 29.86 in 6.2 mi ENE 6.9 mph - N/A   Mostly Cloudy
1:00 PM 89 °F - 73 °F 51% 29.87 in 6 mi NE 6.9 mph - -   Scattered Clouds
1:00 PM 87.8 °F 93.8 °F 71.6 °F 58% 29.83 in 6.2 mi ENE 9.2 mph - N/A   Mostly Cloudy
2:00 PM 87.8 °F 93.8 °F 71.6 °F 58% 29.80 in 6.2 mi ENE 9.2 mph - N/A   Mostly Cloudy
3:00 PM 87.8 °F 93.8 °F 71.6 °F 58% 29.80 in 6.2 mi East 10.4 mph - N/A   Mostly Cloudy
4:00 PM 88 °F - 70 °F 47% 29.83 in 6 mi NNE 11.5 mph - -   Scattered Clouds
4:00 PM 87.8 °F 93.8 °F 71.6 °F 58% 29.80 in 6.2 mi East 12.7 mph - N/A   Scattered Clouds
5:00 PM 86.0 °F 91.8 °F 71.6 °F 62% 29.80 in 6.2 mi ENE 11.5 mph - N/A   Scattered Clouds
7:00 PM 82 °F - 72 °F 65% 29.87 in 6 mi NE 5.8 mph - -   Scattered Clouds
10:00 PM 78 °F - 72 °F 78% 29.94 in 6 mi NNE 5.8 mph - -   Scattered Clouds